Location: Hains Lake
(37.8540°N, 99.8578°W)
Time: 04:28:40
(UTC+00:00)

Vanguard 2 Rocket - Pass Details

Date: 23 April 2021
Orbit: 553 x 3326 km, 32.9° (Epoch: 07 May)

Event Time Altitude Azimuth Distance (km) Brightness Sun altitude
Rises 17:46:42 0° 222° (SW) 5,416 11.0 62.5°
Reaches altitude 10° 17:49:56 10° 217° (SW) 4,742 10.9 62.8°
Maximum altitude 18:03:46 49° 147° (SSE) 3,555 11.8 63.8°
Drops below altitude 10° 18:22:28 10° 82° (E) 6,283 11.3 64.7°
Sets 18:27:31 0° 78° (ENE) 7,240 11.5 64.8°
